Time,TemperatureF,DewpointF,PressureIn,WindDirection,WindDirectionDegrees,WindSpeedMPH,WindSpeedGustMPH,Humidity,HourlyPrecipIn,Conditions,Clouds,dailyrainin,SoftwareType,DateUTC
2013-07-30 00:03:00,55.0,49.0,-100.00,NW,310,0.0,1.0,79,-99.99,,,-99.99,,2013-07-30 06:03:00,
2013-07-30 00:12:00,55.0,49.0,-100.00,NW,310,0.0,1.0,79,-99.99,,,-99.99,,2013-07-30 06:12:00,
2013-07-30 00:32:00,54.0,48.0,-100.00,ENE,70,0.0,0.0,79,-99.99,,,-99.99,,2013-07-30 06:32:00,
2013-07-30 00:43:00,54.0,48.0,-100.00,ENE,70,0.0,0.0,79,-99.99,,,-99.99,,2013-07-30 06:43:00,
2013-07-30 00:53:00,55.0,49.0,-100.00,NNE,30,0.0,1.0,81,-99.99,,,-99.99,,2013-07-30 06:53:00,
2013-07-30 01:02:00,54.0,48.0,-100.00,WSW,240,0.0,0.0,81,-99.99,,,-99.99,,2013-07-30 07:02:00,
2013-07-30 01:13:00,54.0,48.0,-100.00,WSW,240,0.0,0.0,81,-99.99,,,-99.99,,2013-07-30 07:13:00,
2013-07-30 01:53:00,51.0,46.0,-100.00,SW,230,0.0,1.0,83,-99.99,,,-99.99,,2013-07-30 07:53:00,
2013-07-30 02:03:00,52.0,47.0,-100.00,North,0,2.0,4.0,83,-99.99,,,-99.99,,2013-07-30 08:03:00,
2013-07-30 02:12:00,52.0,47.0,-100.00,North,0,2.0,4.0,83,-99.99,,,-99.99,,2013-07-30 08:12:00,
2013-07-30 02:33:00,54.0,50.0,-100.00,NE,35,0.0,4.0,83,-99.99,,,-99.99,,2013-07-30 08:33:00,
2013-07-30 02:53:00,53.0,48.0,-100.00,SE,135,1.0,2.0,83,-99.99,,,-99.99,,2013-07-30 08:53:00,
2013-07-30 03:03:00,53.0,48.0,-100.00,SSW,195,0.0,2.0,83,-99.99,,,-99.99,,2013-07-30 09:03:00,
2013-07-30 03:13:00,53.0,48.0,-100.00,SSW,195,0.0,2.0,83,-99.99,,,-99.99,,2013-07-30 09:13:00,
2013-07-30 03:53:00,51.0,46.0,-100.00,SE,130,1.0,2.0,83,-99.99,,,-99.99,,2013-07-30 09:53:00,
2013-07-30 04:03:00,51.0,47.0,-100.00,ESE,110,1.0,2.0,83,-99.99,,,-99.99,,2013-07-30 10:03:00,
2013-07-30 04:12:00,51.0,47.0,-100.00,ESE,110,1.0,2.0,83,-99.99,,,-99.99,,2013-07-30 10:12:00,
2013-07-30 04:32:00,51.0,46.0,-100.00,East,90,2.0,3.0,83,-99.99,,,-99.99,,2013-07-30 10:32:00,
2013-07-30 04:52:00,52.0,47.0,-100.00,East,90,1.0,2.0,83,-99.99,,,-99.99,,2013-07-30 10:52:00,
2013-07-30 05:02:00,53.0,48.0,-100.00,ENE,75,2.0,3.0,83,-99.99,,,-99.99,,2013-07-30 11:02:00,
2013-07-30 05:11:00,53.0,48.0,-100.00,ENE,75,2.0,3.0,83,-99.99,,,-99.99,,2013-07-30 11:11:00,
2013-07-30 05:53:00,54.0,50.0,-100.00,NNW,330,0.0,2.0,83,-99.99,,,-99.99,,2013-07-30 11:53:00,
2013-07-30 06:12:00,54.0,49.0,-100.00,East,100,1.0,2.0,83,-99.99,,,-99.99,,2013-07-30 12:12:00,
2013-07-30 06:53:00,54.0,49.0,-100.00,South,190,4.0,6.0,83,-99.99,,,-99.99,,2013-07-30 12:53:00,
2013-07-30 07:02:00,54.0,50.0,-100.00,South,175,3.0,6.0,83,-99.99,,,-99.99,,2013-07-30 13:02:00,
2013-07-30 07:12:00,54.0,50.0,-100.00,South,175,3.0,6.0,83,-99.99,,,-99.99,,2013-07-30 13:12:00,
2013-07-30 07:52:00,57.0,52.0,-100.00,South,180,1.0,3.0,83,-99.99,,,-99.99,,2013-07-30 13:52:00,
2013-07-30 08:02:00,57.0,52.0,-100.00,ESE,110,7.0,7.0,83,-99.99,,,-99.99,,2013-07-30 14:02:00,
2013-07-30 08:12:00,57.0,52.0,-100.00,ESE,110,7.0,7.0,83,-99.99,,,-99.99,,2013-07-30 14:12:00,
2013-07-30 08:53:00,59.0,54.0,-100.00,NE,55,6.0,8.0,83,-99.99,,,-99.99,,2013-07-30 14:53:00,
2013-07-30 09:02:00,60.0,54.0,-100.00,NE,55,4.0,6.0,83,-99.99,,,-99.99,,2013-07-30 15:02:00,
2013-07-30 09:12:00,60.0,54.0,-100.00,NE,55,4.0,6.0,83,-99.99,,,-99.99,,2013-07-30 15:12:00,
2013-07-30 09:53:00,62.0,55.0,-100.00,ENE,60,2.0,6.0,79,-99.99,,,-99.99,,2013-07-30 15:53:00,
2013-07-30 10:02:00,62.0,55.0,-100.00,East,95,4.0,6.0,77,-99.99,,,-99.99,,2013-07-30 16:02:00,
2013-07-30 10:12:00,62.0,55.0,-100.00,East,95,4.0,6.0,77,-99.99,,,-99.99,,2013-07-30 16:12:00,
2013-07-30 10:52:00,65.0,53.0,-100.00,SE,135,6.0,8.0,65,-99.99,,,-99.99,,2013-07-30 16:52:00,
2013-07-30 11:02:00,65.0,53.0,-100.00,SE,125,6.0,8.0,64,-99.99,,,-99.99,,2013-07-30 17:02:00,
2013-07-30 11:12:00,65.0,53.0,-100.00,SE,125,6.0,8.0,64,-99.99,,,-99.99,,2013-07-30 17:12:00,
2013-07-30 11:53:00,69.0,53.0,-100.00,NE,50,6.0,11.0,57,-99.99,,,-99.99,,2013-07-30 17:53:00,
2013-07-30 12:03:00,70.0,52.0,-100.00,East,80,7.0,9.0,54,-99.99,,,-99.99,,2013-07-30 18:03:00,
2013-07-30 12:12:00,70.0,52.0,-100.00,East,80,7.0,9.0,54,-99.99,,,-99.99,,2013-07-30 18:12:00,
2013-07-30 12:52:00,69.0,53.0,-100.00,South,185,9.0,13.0,55,-99.99,,,-99.99,,2013-07-30 18:52:00,
2013-07-30 13:02:00,69.0,51.0,-100.00,SE,140,9.0,12.0,51,-99.99,,,-99.99,,2013-07-30 19:02:00,
2013-07-30 13:12:00,69.0,51.0,-100.00,SE,140,9.0,12.0,51,-99.99,,,-99.99,,2013-07-30 19:12:00,
2013-07-30 14:02:00,72.0,49.0,-100.00,SSE,160,5.0,9.0,44,-99.99,,,-99.99,,2013-07-30 20:02:00,
2013-07-30 14:12:00,72.0,49.0,-100.00,SSE,160,5.0,9.0,44,-99.99,,,-99.99,,2013-07-30 20:12:00,
2013-07-30 15:53:00,75.0,48.0,-100.00,West,275,3.0,6.0,38,-99.99,,,-99.99,,2013-07-30 21:53:00,
2013-07-30 16:02:00,77.0,48.0,-100.00,South,190,2.0,8.0,35,-99.99,,,-99.99,,2013-07-30 22:02:00,
2013-07-30 21:32:00,66.0,47.0,-100.00,NNW,340,4.0,6.0,50,-99.99,,,-99.99,,2013-07-31 03:32:00,
2013-07-30 21:52:00,64.0,48.0,-100.00,North,355,4.0,5.0,55,-99.99,,,-99.99,,2013-07-31 03:52:00,
2013-07-30 22:02:00,64.0,48.0,-100.00,NNW,345,5.0,6.0,55,-99.99,,,-99.99,,2013-07-31 04:02:00,
2013-07-30 22:12:00,64.0,48.0,-100.00,NNW,345,5.0,6.0,55,-99.99,,,-99.99,,2013-07-31 04:12:00,
2013-07-30 22:52:00,63.0,50.0,-100.00,North,0,4.0,5.0,62,-99.99,,,-99.99,,2013-07-31 04:52:00,
2013-07-30 23:02:00,63.0,50.0,-100.00,NNE,30,2.0,4.0,61,-99.99,,,-99.99,,2013-07-31 05:02:00,
2013-07-30 23:11:00,63.0,50.0,-100.00,NNE,30,2.0,4.0,61,-99.99,,,-99.99,,2013-07-31 05:11:00,
2013-07-30 23:52:00,63.0,50.0,-100.00,SSE,165,1.0,2.0,62,-99.99,,,-99.99,,2013-07-31 05:52:00,